Mt. Pocono, PA

10:10 PM EST on December 10, 2019 (GMT -0500)
Pocono Mountains Municipal

Weather History for KMPO - September, 2019

Change the Weather History Date:

Thursday, September 12, 2019

  Actual Average Record
Temperature  
Mean Temperature 63 °F 60 °F  
Max Temperature 72 °F 69 °F 87 °F (1931)
Min Temperature 54 °F 51 °F 32 °F (1977)
Degree Days  
Heating Degree Days 2 5  
Month to date heating degree days 34 47  
Since 1 July heating degree days 75 110  
Cooling Degree Days 0 1  
Month to date cooling degree days 19 12  
Year to date cooling degree days 337 308  
Growing Degree Days 13 (Base 50)    
Moisture  
Dew Point 64 °F    
Average Humidity 95    
Maximum Humidity 100    
Minimum Humidity 78    
Precipitation  
Precipitation 0.12 in 0.19 in 2.16 in (1997)
Month to date precipitation 0.84 1.95  
Year to date precipitation 35.77 32.93  
Sea Level Pressure  
Sea Level Pressure 30.15 in    
Wind  
Wind Speed 7 mph ()    
Max Wind Speed 14 mph    
Max Gust Speed 19 mph    
Visibility 8.6 miles    
Events Rain    
T = Trace of Precipitation, MM = Missing Value Source: Averaged Metar Reports

Daily Weather History Graph

Daily Weather History Graph

Search for Another Location

Airport or City:

Astronomy

Sep. 12, 2019 Rise Set
Actual Time 6:38 AM EDT 7:16 PM EDT
Civil Twilight 6:10 AM EDT 7:43 PM EDT
Nautical Twilight 5:38 AM EDT 8:16 PM EDT
Astronomical Twilight 5:04 AM EDT 8:50 PM EDT
Moon 7:00 PM EDT (9/12) 4:54 AM EDT (9/12)
Length of Visible Light 13h 32m
Length of Day
12h 37m
Waxing Gibbous, 98% of the Moon is Illuminated
Sep 12
Waxing Gibbous
Sep 14
Full
Sep 21
Last Quarter
Sep 28
New
Oct 5
First Quarter

Hourly Weather History & Observations

Time (EDT) Temp. Dew Point Humidity Pressure Visibility Wind Dir Wind Speed Gust Speed Precip Events Conditions
12:53 AM 66.9 °F 66.0 °F 97% 30.07 in 10.0 mi WNW 4.6 mph - N/A   Clear
1:53 AM 66.0 °F 64.9 °F 96% 30.05 in 10.0 mi NW 5.8 mph - N/A   Partly Cloudy
2:53 AM 66.9 °F 64.9 °F 93% 30.05 in 10.0 mi WNW 11.5 mph - N/A   Overcast
3:53 AM 66.0 °F 66.0 °F 100% 30.04 in 10.0 mi WNW 5.8 mph - 0.02 in Rain Light Rain
4:53 AM 66.0 °F 66.0 °F 100% 30.04 in 10.0 mi NW 8.1 mph - 0.01 in   Partly Cloudy
5:17 AM 66.0 °F 66.0 °F 100% 30.08 in 10.0 mi WNW 9.2 mph - N/A   Scattered Clouds
5:26 AM 66.0 °F 66.0 °F 100% 30.08 in 10.0 mi NW 9.2 mph - N/A   Mostly Cloudy
5:53 AM 66.0 °F 66.0 °F 100% 30.06 in 10.0 mi NW 8.1 mph - N/A   Overcast
6:51 AM 64.4 °F 64.4 °F 100% 30.10 in 1.8 mi West 5.8 mph - N/A   Overcast
6:53 AM 64.9 °F 64.9 °F 100% 30.07 in 1.8 mi West 5.8 mph - N/A   Overcast
7:05 AM 64.9 °F 64.9 °F 100% 30.11 in 3.0 mi WNW 6.9 mph - N/A   Overcast
7:23 AM 64.9 °F 64.9 °F 100% 30.11 in 2.5 mi WNW 10.4 mph - N/A   Overcast
7:30 AM 64.9 °F 64.9 °F 100% 30.12 in 5.0 mi WNW 9.2 mph - N/A   Overcast
7:53 AM 66.0 °F 66.0 °F 100% 30.09 in 9.0 mi WNW 8.1 mph - N/A   Overcast
8:33 AM 66.9 °F 66.9 °F 100% 30.12 in 10.0 mi WNW 11.5 mph - N/A   Mostly Cloudy
8:43 AM 66.9 °F 66.9 °F 100% 30.12 in 10.0 mi NW 8.1 mph - N/A   Overcast
8:53 AM 68.0 °F 66.9 °F 96% 30.09 in 10.0 mi NW 9.2 mph - N/A   Overcast
9:53 AM 69.1 °F 66.9 °F 93% 30.11 in 10.0 mi WNW 6.9 mph - N/A   Mostly Cloudy
10:44 AM 70.0 °F 66.9 °F 90% 30.14 in 10.0 mi NW 8.1 mph - N/A   Mostly Cloudy
10:53 AM 71.1 °F 66.9 °F 87% 30.12 in 10.0 mi NW 10.4 mph - N/A   Mostly Cloudy
11:22 AM 70.0 °F 66.0 °F 87% 30.14 in 10.0 mi NW 9.2 mph - N/A   Overcast
11:42 AM 69.1 °F 66.0 °F 90% 30.14 in 10.0 mi WNW 8.1 mph - N/A   Overcast
11:53 AM 70.0 °F 66.0 °F 87% 30.12 in 10.0 mi NW 8.1 mph - N/A   Overcast
12:53 PM 72.0 °F 64.9 °F 78% 30.11 in 10.0 mi NNE 6.9 mph - N/A   Overcast
1:53 PM 66.9 °F 66.0 °F 97% 30.12 in 7.0 mi North 6.9 mph - 0.05 in Rain Light Rain
2:06 PM 68.0 °F 66.9 °F 96% 30.15 in 10.0 mi North 4.6 mph - 0.01 in Rain Light Rain
2:35 PM 69.1 °F 66.9 °F 93% 30.14 in 10.0 mi NNE 6.9 mph - 0.02 in Rain Light Rain
2:53 PM 69.1 °F 66.9 °F 93% 30.11 in 10.0 mi NE 5.8 mph - 0.02 in   Overcast
3:08 PM 71.1 °F 66.9 °F 87% 30.14 in 10.0 mi North 6.9 mph - N/A   Overcast
3:16 PM 71.1 °F 66.0 °F 84% 30.14 in 10.0 mi North 9.2 mph - N/A   Overcast
3:29 PM 71.1 °F 66.0 °F 84% 30.14 in 10.0 mi NNE 8.1 mph - N/A   Overcast
3:53 PM 70.0 °F 64.9 °F 84% 30.12 in 10.0 mi North 10.4 mph - N/A   Overcast
4:01 PM 70.0 °F 64.9 °F 84% 30.15 in 10.0 mi North 10.4 mph - N/A   Overcast
4:47 PM 66.2 °F 64.4 °F 94% 30.16 in 10.0 mi NE 5.8 mph - 0.00 in Rain Light Rain
4:48 PM 66.0 °F 64.9 °F 96% 30.14 in 10.0 mi NE 8.1 mph - 0.00 in Rain Light Rain
4:56 PM 64.9 °F 64.9 °F 100% 30.17 in 10.0 mi ENE 9.2 mph - 0.00 in Rain Light Rain
5:36 PM 64.0 °F 63.0 °F 96% 30.18 in 10.0 mi NNE 8.1 mph - 0.00 in   Overcast
5:45 PM 64.0 °F 63.0 °F 96% 30.19 in 10.0 mi NE 5.8 mph - 0.00 in   Overcast
5:53 PM 64.0 °F 63.0 °F 96% 30.18 in 10.0 mi NNE 8.1 mph - 0.00 in   Overcast
5:58 PM 64.0 °F 63.0 °F 96% 30.19 in 10.0 mi NNE 8.1 mph - N/A   Overcast
6:41 PM 63.0 °F 63.0 °F 100% 30.21 in 7.0 mi NE 8.1 mph - N/A   Overcast
6:53 PM 62.1 °F 62.1 °F 100% 30.20 in 8.0 mi NE 6.9 mph - N/A   Overcast
7:06 PM 62.1 °F 62.1 °F 100% 30.22 in 8.0 mi NE 5.8 mph - N/A   Overcast
7:29 PM 62.1 °F 62.1 °F 100% 30.23 in 8.0 mi ENE 5.8 mph - 0.00 in Rain Light Rain
7:53 PM 61.0 °F 61.0 °F 100% 30.23 in 10.0 mi Variable 5.8 mph - 0.00 in   Overcast
9:53 PM 59.0 °F 59.0 °F 100% 30.28 in 8.0 mi ENE 8.1 mph - 0.00 in   Overcast
10:46 PM 57.0 °F 57.0 °F 100% 30.30 in 1.8 mi East 8.1 mph - 0.01 in Rain Light Rain
10:53 PM 55.9 °F 55.9 °F 100% 30.29 in 2.0 mi East 9.2 mph - 0.01 in Rain Light Rain
11:01 PM 55.0 °F 55.0 °F 100% 30.30 in 7.0 mi East 8.1 mph - 0.00 in Rain Light Rain
11:29 PM 55.0 °F 55.0 °F 100% 30.31 in 10.0 mi ENE 8.1 mph - 0.00 in   Overcast
11:53 PM 54.0 °F 53.1 °F 97% 30.30 in 10.0 mi ENE 9.2 mph - 0.00 in   Overcast